Home   Weather   Versoix   Past weeks

Flag for Switzerland Past Weather in Versoix, Geneva, Switzerland — Yesterday and Last 2 Weeks

Now
26 °F

Fog.


Feels Like: 22 °F
Forecast: 25 / 44 °F
Wind: 3 mph from North

Location: Geneve-Cointrin

Current Time: Jan 22, 2017 at 11:27:31 am

Latest Report: Jan 22, 2017 at 10:00 am


Visibility: 3 mi

Pressure: 30.33 "Hg

Humidity: 88%

Dew Point: 23 °F

Location of VersoixLocation

Past Weather in Versoix — Graph

°F

Versoix Temperature Yesterday

Maximum temperature yesterday: 29 °F (at 3:00 pm)
Minimum temperature yesterday: 25 °F (at 7:00 am)
Average temperature yesterday: 27 °F

High & Low Weather Summary for the Past Weeks

 TemperatureHumidityPressure
High44 °F (Jan 13, 2:00 am)100% (Jan 10, 8:00 pm)30.65 "Hg (Jan 10, 8:00 pm)
Low21 °F (Jan 7, 9:00 am)53% (Jan 13, 2:00 am)29.69 "Hg (Jan 12, 11:00 pm)
Average30 °F79%30.27 "Hg
* Reported Jan 7 9:00 am — Jan 22 9:00 am, Versoix, Weather by CustomWeather, © 2017

Note: Actual official high and low records may vary slightly from our data, if they occured in-between our weather recording intervals... More about our weather records

Advertising

Versoix Weather History for the Previous 24 Hours

Scroll right to see more
 ConditionsComfort  
Time TempWeatherWind HumidityBarometerVisibility
9:00 am
Sun, Jan 22
26 °FChilly.5 mph93%30.33 "HgN/A
8:00 am26 °FChilly.5 mph92%30.32 "HgN/A
7:00 am26 °FFog.3 mph90%30.33 "Hg3 mi
6:00 am26 °FChilly.5 mph92%30.32 "HgN/A
5:00 am26 °FChilly.3 mph92%30.34 "HgN/A
4:00 am26 °FChilly.3 mph90%30.36 "HgN/A
3:00 am26 °FChilly.2 mph90%30.38 "HgN/A
2:00 am26 °FChilly.3 mph89%30.38 "HgN/A
1:00 am26 °FChilly.3 mph88%30.39 "HgN/A
12:00 am27 °FChilly.5 mph90%30.40 "HgN/A
11:00 pm
Sat, Jan 21
27 °FChilly.3 mph90%30.40 "HgN/A
10:00 pm27 °FFog.3 mph90%30.40 "Hg3 mi
9:00 pm28 °FChilly.7 mph90%30.40 "HgN/A
8:00 pm28 °FChilly.6 mph90%30.39 "HgN/A
7:00 pm28 °FFog.5 mph88%30.38 "Hg3 mi
6:00 pm28 °FChilly.3 mph86%30.38 "HgN/A
5:00 pm29 °FChilly.3 mph85%30.38 "HgN/A
4:00 pm29 °FFog.5 mph83%30.39 "Hg4 mi
3:00 pm29 °FChilly.5 mph81%30.39 "HgN/A
2:00 pm28 °FChilly.5 mph85%30.41 "HgN/A
1:00 pm28 °FFog.6 mph86%30.43 "Hg3 mi
12:00 pm27 °FChilly.3 mph88%30.46 "HgN/A
11:00 am26 °FChilly.3 mph89%30.47 "HgN/A
Weather by CustomWeather, © 2017

See weather overviewHow to use our weather pages